Location: Katowice
(50.2611°N, 19.0242°E)
Time: 08:06:24
(UTC+02:00)

ISS - Pass Details

Date: 23 March 2019
Orbit: 408 x 410 km, 51.6° (Epoch: 21 April)

Event Time Altitude Azimuth Distance (km) Brightness Sun altitude
Rises 18:42:38 0° 207° (SSW) 2,324 0.2 -7.4°
Reaches altitude 10° 18:45:07 10° 188° (S) 1,467 -1.0 -7.8°
Maximum altitude 18:47:30 19° 141° (SE) 1,057 -2.2 -8.2°
Enters shadow 18:49:29 12° 100° (E) 1,359 -1.9 -8.5°
